星链-32152 (STARLINK-32152)

导读 | 星芒AI

STARLINK-32152 是 SpaceX 星链计划中的一颗低轨通信卫星,属于第 15 批部署的星链卫星群。该卫星于 2023 年发射,运行在约 550 公里的轨道高度,旨在为全球用户提供高速互联网服务。作为星链网络的一部分,它通过与其他卫星协同工作,提升网络覆盖与连接稳定性,尤其在偏远地区发挥重要作用。星链项目致力于构建全球卫星互联网系统,推动全球数字接入的普及。

基本信息
目录编号:
60275
目录名称:
STARLINK-32152
国际标识:
2024-131W
轨道中心:
EARTH
卫星名称:
星链-32152 (STARLINK-32152)
卫星全名:
星链-32152 (STARLINK-32152)
卫星状态:
在轨 (已飞行511 天)
发射日期:
2024-07-27 UTC
国别 :
美国 (US)
星等 :
--
轨道信息
数据来源 国际轨道数据
星历时间: 2025-12-19T23:01:11+0800
16小时前
查看轨道信息
半长轴: 6853.498km
偏心率: 0.0001386
轨道倾角: 53.160°
近地点辐角 103.848°
升交点赤经 64.092°
平近点角 256.268°
近地点: 474.411km
远地点: 476.311km
周期: 94.108分钟
每日圈数: 15.301513
详细信息
卫星平台:
Starlink v2.0 mini
运营商:
太空探索技术公司
运营商所在国:
美国
制造商(研发单位):
太空探索技术公司
制造商所在国:
美国
使用方式:
暂无
卫星简介
星链(Starlink)计划是由太空探索技术公司(SpaceX)提出的一个巨型低轨卫星互联网星座项目,计划在2019年至2024年间在太空搭建由约1.2万颗卫星组成的“星链”网络,其中1584颗将部署在地球上空550千米处的近地轨道,并从2020年开始工作。该卫星仍在工作。
2D轨道图
3D轨道图
轨道高度分析图
轨道倾角分析图
轨道综合分析图
查看轨道综合分析图